Date,TemperatureHighF,TemperatureAvgF,TemperatureLowF,DewpointHighF,DewpointAvgF,DewpointLowF,HumidityHigh,HumidityAvg,HumidityLow,PressureMaxIn,PressureMinIn,WindSpeedMaxMPH,WindSpeedAvgMPH,GustSpeedMaxMPH,PrecipitationSumIn
2014-1-1,47,35,27,-100,-100,-100,0,0,100,0.00,40.00,0,-999,0,0.00
2014-1-2,23,16,5,-100,-100,-100,0,0,100,0.00,40.00,0,-999,0,0.00
2014-1-3,28,14,-1,-100,-100,-100,0,0,100,0.00,40.00,0,-999,0,0.00
2014-1-4,40,34,25,-100,-100,-100,0,0,100,0.00,40.00,0,-999,0,0.00
2014-1-5,35,23,6,-100,-100,-100,0,0,100,0.00,40.00,0,-999,0,0.00
2014-1-6,-3,-5,-7,-100,-100,-100,0,0,100,0.00,40.00,0,-999,0,0.00
2014-1-7,18,9,-7,-100,-100,-100,0,0,100,0.00,40.00,0,-999,0,0.00
2014-1-8,27,22,18,-100,-100,-100,0,0,100,0.00,40.00,0,-999,0,0.00
2014-1-9,34,27,20,-100,-100,-100,0,0,100,0.00,40.00,0,-999,0,0.00
2014-1-10,44,39,34,-100,-100,-100,0,0,100,0.00,40.00,0,-999,0,0.00
2014-1-11,45,41,36,-100,-100,-100,0,0,100,0.00,40.00,0,-999,0,0.00
2014-1-12,53,41,29,-100,-100,-100,0,0,100,0.00,40.00,0,-999,0,0.00
2014-1-13,54,46,33,-100,-100,-100,0,0,100,0.00,40.00,0,-999,0,0.00
2014-1-14,43,35,29,-100,-100,-100,0,0,100,0.00,40.00,0,-999,0,0.00
2014-1-15,31,26,23,-100,-100,-100,0,0,100,0.00,40.00,0,-999,0,0.00
2014-1-16,43,35,27,-100,-100,-100,0,0,100,0.00,40.00,0,-999,0,0.00
2014-1-17,27,19,14,-100,-100,-100,0,0,100,0.00,40.00,0,-999,0,0.00
2014-1-18,36,29,16,-100,-100,-100,0,0,100,0.00,40.00,0,-999,0,0.00
2014-1-19,46,35,23,-100,-100,-100,0,0,100,0.00,40.00,0,-999,0,0.00
2014-1-20,46,38,32,-100,-100,-100,0,0,100,0.00,40.00,0,-999,0,0.00
2014-1-21,35,18,10,-100,-100,-100,0,0,100,0.00,40.00,0,-999,0,0.00
2014-1-22,29,16,11,-100,-100,-100,0,0,100,0.00,40.00,0,-999,0,0.00
2014-1-23,14,9,2,-100,-100,-100,0,0,100,0.00,40.00,0,-999,0,0.00
2014-1-24,31,21,2,-100,-100,-100,0,0,100,0.00,40.00,0,-999,0,0.00
2014-1-25,39,31,21,-100,-100,-100,0,0,100,0.00,40.00,0,-999,0,0.00
2014-1-26,52,37,23,-100,-100,-100,0,0,100,0.00,40.00,0,-999,0,0.00
2014-1-27,23,13,5,-100,-100,-100,0,0,100,0.00,40.00,0,-999,0,0.00
2014-1-28,20,10,3,-100,-100,-100,0,0,100,0.00,40.00,0,-999,0,0.00
2014-1-29,34,20,9,-100,-100,-100,0,0,100,0.00,40.00,0,-999,0,0.00
2014-1-30,41,31,23,-100,-100,-100,0,0,100,0.00,40.00,0,-999,0,0.00
2014-1-31,33,30,26,-100,-100,-100,0,0,100,0.00,40.00,0,-999,0,0.00
2014-2-1,38,34,32,-100,-100,-100,0,0,100,0.00,40.00,0,-999,0,0.00
2014-2-2,31,24,16,-100,-100,-100,0,0,100,0.00,40.00,0,-999,0,0.00
2014-2-3,32,21,12,-100,-100,-100,0,0,100,0.00,40.00,0,-999,0,0.00
2014-2-4,27,26,23,-100,-100,-100,0,0,100,0.00,40.00,0,-999,0,0.00
2014-2-5,26,22,11,-100,-100,-100,0,0,100,0.00,40.00,0,-999,0,0.00
2014-2-6,11,7,2,-100,-100,-100,0,0,100,0.00,40.00,0,-999,0,0.00
2014-2-7,20,9,-4,-100,-100,-100,0,0,100,0.00,40.00,0,-999,0,0.00
2014-2-8,28,23,16,-100,-100,-100,0,0,100,0.00,40.00,0,-999,0,0.00
2014-2-9,26,24,16,-100,-100,-100,0,0,100,0.00,40.00,0,-999,0,0.00
2014-2-10,13,7,2,-100,-100,-100,0,0,100,0.00,40.00,0,-999,0,0.00
2014-2-11,17,10,-6,-100,-100,-100,0,0,100,0.00,40.00,0,-999,0,0.00
2014-2-12,32,17,2,-100,-100,-100,0,0,100,0.00,40.00,0,-999,0,0.00
2014-2-13,42,24,5,-100,-100,-100,0,0,100,0.00,40.00,0,-999,0,0.00
2014-2-14,24,20,7,-100,-100,-100,0,0,100,0.00,40.00,0,-999,0,0.00
2014-2-15,27,20,3,-100,-100,-100,0,0,100,0.00,40.00,0,-999,0,0.00
2014-2-16,31,27,20,-100,-100,-100,0,0,100,0.00,40.00,0,-999,0,0.00
2014-2-17,39,32,24,-100,-100,-100,0,0,100,0.00,40.00,0,-999,0,0.00
2014-2-18,50,41,32,-100,-100,-100,0,0,100,0.00,40.00,0,-999,0,0.00
2014-2-19,50,43,33,-100,-100,-100,0,0,100,0.00,40.00,0,-999,0,0.00
2014-2-20,65,50,39,-100,-100,-100,0,0,100,0.00,40.00,0,-999,0,0.00
2014-2-21,51,40,35,-100,-100,-100,0,0,100,0.00,40.00,0,-999,0,0.00
2014-2-22,59,41,32,-100,-100,-100,0,0,100,0.00,40.00,0,-999,0,0.00
2014-2-23,37,31,28,-100,-100,-100,0,0,100,0.00,40.00,0,-999,0,0.00
2014-2-24,32,29,25,-100,-100,-100,0,0,100,0.00,40.00,0,-999,0,0.00
2014-2-25,31,26,22,-100,-100,-100,0,0,100,0.00,40.00,0,-999,0,0.00
2014-2-26,26,20,14,-100,-100,-100,0,0,100,0.00,40.00,0,-999,0,0.00
2014-2-27,26,22,17,-100,-100,-100,0,0,100,0.00,40.00,0,-999,0,0.00
2014-2-28,45,33,14,-100,-100,-100,0,0,100,0.00,40.00,0,-999,0,0.00
2014-3-1,39,34,24,-100,-100,-100,0,0,100,0.00,40.00,0,-999,0,0.00
2014-3-2,22,16,11,-100,-100,-100,0,0,100,0.00,40.00,0,-999,0,0.00
2014-3-3,25,16,5,-100,-100,-100,0,0,100,0.00,40.00,0,-999,0,0.00
2014-3-4,37,29,14,-100,-100,-100,0,0,100,0.00,40.00,0,-999,0,0.00
2014-3-5,41,32,26,-100,-100,-100,0,0,100,0.00,40.00,0,-999,0,0.00
2014-3-6,48,34,24,-100,-100,-100,0,0,100,0.00,40.00,0,-999,0,0.00
2014-3-7,57,42,29,-100,-100,-100,0,0,100,0.00,40.00,0,-999,0,0.00
2014-3-8,42,38,34,-100,-100,-100,0,0,100,0.00,40.00,0,-999,0,0.00
2014-3-9,52,45,32,-100,-100,-100,0,0,100,0.00,40.00,0,-999,0,0.00
2014-3-10,71,50,41,-100,-100,-100,0,0,100,0.00,40.00,0,-999,0,0.00
2014-3-11,77,59,45,-100,-100,-100,0,0,100,0.00,40.00,0,-999,0,0.00
2014-3-12,41,37,32,-100,-100,-100,0,0,100,0.00,40.00,0,-999,0,0.00
2014-3-13,52,46,26,-100,-100,-100,0,0,100,0.00,40.00,0,-999,0,0.00
2014-3-14,64,51,41,-100,-100,-100,0,0,100,0.00,40.00,0,-999,0,0.00
2014-3-15,66,52,33,-100,-100,-100,0,0,100,0.00,40.00,0,-999,0,0.00
2014-3-16,37,34,31,-100,-100,-100,0,0,100,0.00,40.00,0,-999,0,0.00
2014-3-17,47,38,23,-100,-100,-100,0,0,100,0.00,40.00,0,-999,0,0.00
2014-3-18,57,43,34,-100,-100,-100,0,0,100,0.00,40.00,0,-999,0,0.00
2014-3-19,45,40,33,-100,-100,-100,0,0,100,0.00,40.00,0,-999,0,0.00
2014-3-20,67,49,31,-100,-100,-100,0,0,100,0.00,40.00,0,-999,0,0.00
2014-3-21,75,58,45,-100,-100,-100,0,0,100,0.00,40.00,0,-999,0,0.00
2014-3-22,46,40,34,-100,-100,-100,0,0,100,0.00,40.00,0,-999,0,0.00
2014-3-23,41,36,26,-100,-100,-100,0,0,100,0.00,40.00,0,-999,0,0.00
2014-3-24,41,34,24,-100,-100,-100,0,0,100,0.00,40.00,0,-999,0,0.00
2014-3-25,38,33,30,-100,-100,-100,0,0,100,0.00,40.00,0,-999,0,0.00
2014-3-26,47,32,19,-100,-100,-100,0,0,100,0.00,40.00,0,-999,0,0.00
2014-3-27,58,48,39,-100,-100,-100,0,0,100,0.00,40.00,0,-999,0,0.00
2014-3-28,56,47,41,-100,-100,-100,0,0,100,0.00,40.00,0,-999,0,0.00
2014-3-29,45,43,41,-100,-100,-100,0,0,100,0.00,40.00,0,-999,0,0.00
2014-3-30,61,48,31,-100,-100,-100,0,0,100,0.00,40.00,0,-999,0,0.00
2014-3-31,68,56,44,-100,-100,-100,0,0,100,0.00,40.00,0,-999,0,0.00
2014-4-1,60,55,48,-100,-100,-100,0,0,100,0.00,40.00,0,-999,0,0.00
2014-4-2,54,51,45,-100,-100,-100,0,0,100,0.00,40.00,0,-999,0,0.00
2014-4-3,63,59,54,-100,-100,-100,0,0,100,0.00,40.00,0,-999,0,0.00
2014-4-4,59,48,42,-100,-100,-100,0,0,100,0.00,40.00,0,-999,0,0.00
2014-4-5,54,48,40,-100,-100,-100,0,0,100,0.00,40.00,0,-999,0,0.00
2014-4-6,60,46,35,-100,-100,-100,0,0,100,0.00,40.00,0,-999,0,0.00
2014-4-7,50,48,46,-100,-100,-100,0,0,100,0.00,40.00,0,-999,0,0.00
2014-4-8,62,53,44,-100,-100,-100,0,0,100,0.00,40.00,0,-999,0,0.00
2014-4-9,66,53,37,-100,-100,-100,0,0,100,0.00,40.00,0,-999,0,0.00
2014-4-10,79,60,51,-100,-100,-100,0,0,100,0.00,40.00,0,-999,0,0.00
2014-4-11,73,61,49,-100,-100,-100,0,0,100,0.00,40.00,0,-999,0,0.00
2014-4-12,79,68,54,-100,-100,-100,0,0,100,0.00,40.00,0,-999,0,0.00
2014-4-13,72,66,64,-100,-100,-100,0,0,100,0.00,40.00,0,-999,0,0.00
2014-4-14,65,46,36,-100,-100,-100,0,0,100,0.00,40.00,0,-999,0,0.00
2014-4-15,47,39,32,-100,-100,-100,0,0,100,0.00,40.00,0,-999,0,0.00
2014-4-16,56,47,36,-100,-100,-100,0,0,100,0.00,40.00,0,-999,0,0.00
2014-4-17,66,55,44,-100,-100,-100,0,0,100,0.00,40.00,0,-999,0,0.00
2014-4-18,72,53,45,-100,-100,-100,0,0,100,0.00,40.00,0,-999,0,0.00
2014-4-19,77,61,46,-100,-100,-100,0,0,100,0.00,40.00,0,-999,0,0.00
2014-4-20,80,69,55,-100,-100,-100,0,0,100,0.00,40.00,0,-999,0,0.00
2014-4-21,72,67,62,-100,-100,-100,0,0,100,0.00,40.00,0,-999,0,0.00
2014-4-22,69,62,54,-100,-100,-100,0,0,100,0.00,40.00,0,-999,0,0.00
2014-4-23,67,58,42,-100,-100,-100,0,0,100,0.00,40.00,0,-999,0,0.00
2014-4-24,77,63,54,-100,-100,-100,0,0,100,0.00,40.00,0,-999,0,0.00
2014-4-25,75,64,54,-100,-100,-100,0,0,100,0.00,40.00,0,-999,0,0.00
2014-4-26,81,68,56,-100,-100,-100,0,0,100,0.00,40.00,0,-999,0,0.00
2014-4-27,79,68,61,-100,-100,-100,0,0,100,0.00,40.00,0,-999,0,0.00
2014-4-28,73,66,59,-100,-100,-100,0,0,100,0.00,40.00,0,-999,0,0.00
2014-4-29,67,59,53,-100,-100,-100,0,0,100,0.00,40.00,0,-999,0,0.00
2014-4-30,56,52,47,-100,-100,-100,0,0,100,0.00,40.00,0,-999,0,0.00
2014-5-1,53,49,45,-100,-100,-100,0,0,100,0.00,40.00,0,-999,0,0.00
2014-5-2,59,53,47,-100,-100,-100,0,0,100,0.00,40.00,0,-999,0,0.00
2014-5-3,72,60,50,-100,-100,-100,0,0,100,0.00,40.00,0,-999,0,0.00
2014-5-4,75,62,51,-100,-100,-100,0,0,100,0.00,40.00,0,-999,0,0.00
2014-5-5,85,65,54,-100,-100,-100,0,0,100,0.00,40.00,0,-999,0,0.00
2014-5-6,85,72,57,-100,-100,-100,0,0,100,0.00,40.00,0,-999,0,0.00
2014-5-13,57,56,55,-100,-100,-100,0,0,100,0.00,40.00,0,-999,0,0.00
2014-5-14,54,52,49,-100,-100,-100,0,0,100,0.00,40.00,0,-999,0,0.00
2014-5-15,59,55,48,-100,-100,-100,0,0,100,0.00,40.00,0,-999,0,0.00
2014-5-16,55,48,43,-100,-100,-100,0,0,100,0.00,40.00,0,-999,0,0.00
2014-5-17,63,55,39,-100,-100,-100,0,0,100,0.00,40.00,0,-999,0,0.00
2014-5-18,69,59,46,-100,-100,-100,0,0,100,0.00,40.00,0,-999,0,0.00
2014-5-19,75,62,52,-100,-100,-100,0,0,100,0.00,40.00,0,-999,0,0.00
2014-5-20,84,75,66,-100,-100,-100,0,0,100,0.00,40.00,0,-999,0,0.00
2014-5-21,88,77,70,-100,-100,-100,0,0,100,0.00,40.00,0,-999,0,0.00
2014-5-22,83,75,64,-100,-100,-100,0,0,100,0.00,40.00,0,-999,0,0.00
2014-5-23,82,70,59,-100,-100,-100,0,0,100,0.00,40.00,0,-999,0,0.00
2014-5-24,83,73,59,-100,-100,-100,0,0,100,0.00,40.00,0,-999,0,0.00
2014-5-25,77,70,66,-100,-100,-100,0,0,100,0.00,40.00,0,-999,0,0.00
2014-5-26,87,76,68,-100,-100,-100,0,0,100,0.00,40.00,0,-999,0,0.00
2014-5-27,87,79,68,-100,-100,-100,0,0,100,0.00,40.00,0,-999,0,0.00
2014-5-28,87,77,66,-100,-100,-100,0,0,100,0.00,40.00,0,-999,0,0.00
2014-5-29,85,75,68,-100,-100,-100,0,0,100,0.00,40.00,0,-999,0,0.00
2014-5-30,87,78,69,-100,-100,-100,0,0,100,0.00,40.00,0,-999,0,0.00
2014-5-31,88,79,70,-100,-100,-100,0,0,100,0.00,40.00,0,-999,0,0.00
2014-6-1,90,78,71,-100,-100,-100,0,0,100,0.00,40.00,0,-999,0,0.00
2014-6-2,80,76,73,-100,-100,-100,0,0,100,0.00,40.00,0,-999,0,0.00
2014-6-3,93,83,71,-100,-100,-100,0,0,100,0.00,40.00,0,-999,0,0.00
2014-6-4,85,77,68,-100,-100,-100,0,0,100,0.00,40.00,0,-999,0,0.00
2014-6-5,78,73,65,-100,-100,-100,0,0,100,0.00,40.00,0,-999,0,0.00
2014-6-6,85,74,62,-100,-100,-100,0,0,100,0.00,40.00,0,-999,0,0.00
2014-6-7,81,74,68,-100,-100,-100,0,0,100,0.00,40.00,0,-999,0,0.00
2014-6-8,80,71,65,-100,-100,-100,0,0,100,0.00,40.00,0,-999,0,0.00
2014-6-9,79,69,62,-100,-100,-100,0,0,100,0.00,40.00,0,-999,0,0.00
2014-6-10,74,68,64,-100,-100,-100,0,0,100,0.00,40.00,0,-999,0,0.00
2014-6-11,70,67,64,-100,-100,-100,0,0,100,0.00,40.00,0,-999,0,0.00
2014-6-12,85,71,62,-100,-100,-100,0,0,100,0.00,40.00,0,-999,0,0.00
2014-6-13,77,70,64,-100,-100,-100,0,0,100,0.00,40.00,0,-999,0,0.00
2014-6-14,80,70,54,-100,-100,-100,0,0,100,0.00,40.00,0,-999,0,0.00
2014-6-15,86,74,64,-100,-100,-100,0,0,100,0.00,40.00,0,-999,0,0.00
2014-6-16,89,79,72,-100,-100,-100,0,0,100,0.00,40.00,0,-999,0,0.00
2014-6-17,92,84,77,-100,-100,-100,0,0,100,0.00,40.00,0,-999,0,0.00
2014-6-18,92,82,75,-100,-100,-100,0,0,100,0.00,40.00,0,-999,0,0.00
2014-6-19,94,83,75,-100,-100,-100,0,0,100,0.00,40.00,0,-999,0,0.00
2014-6-20,92,82,74,-100,-100,-100,0,0,100,0.00,40.00,0,-999,0,0.00
2014-6-21,91,76,68,-100,-100,-100,0,0,100,0.00,40.00,0,-999,0,0.00
2014-6-22,89,79,68,-100,-100,-100,0,0,100,0.00,40.00,0,-999,0,0.00
2014-6-23,91,77,70,-100,-100,-100,0,0,100,0.00,40.00,0,-999,0,0.00
2014-6-24,86,76,71,-100,-100,-100,0,0,100,0.00,40.00,0,-999,0,0.00
2014-6-25,88,79,70,-100,-100,-100,0,0,100,0.00,40.00,0,-999,0,0.00
2014-6-26,92,77,68,-100,-100,-100,0,0,100,0.00,40.00,0,-999,0,0.00
2014-6-27,86,76,70,-100,-100,-100,0,0,100,0.00,40.00,0,-999,0,0.00
2014-6-28,85,78,72,-100,-100,-100,0,0,100,0.00,40.00,0,-999,0,0.00
2014-6-29,83,77,73,-100,-100,-100,0,0,100,0.00,40.00,0,-999,0,0.00
2014-6-30,90,79,74,-100,-100,-100,0,0,100,0.00,40.00,0,-999,0,0.00
2014-7-1,89,81,73,-100,-100,-100,0,0,100,0.00,40.00,0,-999,0,0.00
2014-7-2,74,70,66,-100,-100,-100,0,0,100,0.00,40.00,0,-999,0,0.00
2014-7-3,78,70,61,-100,-100,-100,0,0,100,0.00,40.00,0,-999,0,0.00
2014-7-4,81,68,59,-100,-100,-100,0,0,100,0.00,40.00,0,-999,0,0.00
2014-7-5,81,76,65,-100,-100,-100,0,0,100,0.00,40.00,0,-999,0,0.00
2014-7-6,87,80,68,-100,-100,-100,0,0,100,0.00,40.00,0,-999,0,0.00
2014-7-7,86,78,74,-100,-100,-100,0,0,100,0.00,40.00,0,-999,0,0.00
2014-7-8,85,77,68,-100,-100,-100,0,0,100,0.00,40.00,0,-999,0,0.00
2014-7-9,85,74,64,-100,-100,-100,0,0,100,0.00,40.00,0,-999,0,0.00
2014-7-10,85,72,61,-100,0,200,0,0,100,0.00,40.00,0,0,0,0.00
2014-7-11,87,77,64,-100,0,200,0,0,100,0.00,40.00,0,0,0,0.00
2014-7-12,91,82,75,-100,0,200,0,0,100,0.00,40.00,0,0,0,0.00
2014-7-13,87,81,77,-100,0,200,0,0,100,0.00,40.00,0,0,0,0.00
2014-7-14,84,77,73,-100,0,200,0,0,100,0.00,40.00,0,0,0,0.00
2014-7-15,74,65,57,-100,0,200,0,0,100,0.00,40.00,0,0,0,0.00
2014-7-16,78,73,57,-100,0,200,0,0,100,0.00,40.00,0,0,0,0.00
2014-7-17,83,69,55,-100,0,200,0,0,100,0.00,40.00,0,0,0,0.00
2014-7-18,81,71,63,-100,0,200,0,0,100,0.00,40.00,0,0,0,0.00
2014-7-19,83,73,61,-100,0,200,0,0,100,0.00,40.00,0,0,0,0.00
2014-7-20,87,73,60,-100,0,200,0,0,100,0.00,40.00,0,0,0,0.00
2014-7-21,88,80,66,-100,0,200,0,0,100,0.00,40.00,0,0,0,0.00
2014-7-22,90,81,70,-100,0,200,0,0,100,0.00,40.00,0,0,0,0.00
2014-7-23,84,77,65,-100,0,200,0,0,100,0.00,40.00,0,0,0,0.00
2014-7-24,80,65,56,-100,0,200,0,0,100,0.00,40.00,0,0,0,0.00
2014-7-25,76,67,62,-100,0,200,0,0,100,0.00,40.00,0,0,0,0.00
2014-7-26,94,83,69,-100,0,200,0,0,100,0.00,40.00,0,0,0,0.00
2014-7-27,89,78,69,-100,0,200,0,0,100,0.00,40.00,0,0,0,0.00
2014-7-28,77,70,59,-100,0,200,0,0,100,0.00,40.00,0,0,0,0.00
2014-7-29,82,66,54,-100,0,200,0,0,100,0.00,40.00,0,0,0,0.00
2014-7-30,86,76,60,-100,0,200,0,0,100,0.00,40.00,0,0,0,0.00
2014-7-31,88,75,59,-100,0,200,0,0,100,0.00,40.00,0,0,0,0.00
2014-8-1,80,68,62,-100,0,200,0,0,100,0.00,40.00,0,0,0,0.00
2014-8-2,85,71,59,-100,0,200,0,0,100,0.00,40.00,0,0,0,0.00
2014-8-3,87,75,64,-100,0,200,0,0,100,0.00,40.00,0,0,0,0.00
2014-8-4,88,78,64,-100,0,200,0,0,100,0.00,40.00,0,0,0,0.00
2014-8-5,88,77,71,-100,0,200,0,0,100,0.00,40.00,0,0,0,0.00
2014-8-6,85,78,67,-100,0,200,0,0,100,0.00,40.00,0,0,0,0.00
2014-8-7,75,73,70,-100,0,200,0,0,100,0.00,40.00,0,0,0,0.00
2014-8-8,74,72,70,-100,0,200,0,0,100,0.00,40.00,0,0,0,0.00
2014-8-9,76,71,68,-100,0,200,0,0,100,0.00,40.00,0,0,0,0.00
2014-8-10,83,74,70,-100,0,200,0,0,100,0.00,40.00,0,0,0,0.00
2014-8-11,85,77,68,-100,0,200,0,0,100,0.00,40.00,0,0,0,0.00
2014-8-12,78,72,63,-100,0,200,0,0,100,0.00,40.00,0,0,0,0.00
2014-8-13,82,67,58,-100,0,200,0,0,100,0.00,40.00,0,0,0,0.00
2014-8-14,86,74,60,-100,0,200,0,0,100,0.00,40.00,0,0,0,0.00
2014-8-15,83,75,64,-100,0,200,0,0,100,0.00,40.00,0,0,0,0.00
2014-8-16,75,71,69,-100,0,200,0,0,100,0.00,40.00,0,0,0,0.00
2014-8-17,80,74,71,-100,0,200,0,0,100,0.00,40.00,0,0,0,0.00
2014-8-18,86,77,68,-100,0,200,0,0,100,0.00,40.00,0,0,0,0.00
2014-8-19,88,78,71,-100,0,200,0,0,100,0.00,40.00,0,0,0,0.00
2014-8-20,81,74,69,-100,0,200,0,0,100,0.00,40.00,0,0,0,0.00
2014-8-21,89,82,75,-100,0,200,0,0,100,0.00,40.00,0,0,0,0.00
2014-8-22,89,83,77,-100,0,200,0,0,100,0.00,40.00,0,0,0,0.00
2014-8-23,97,85,77,-100,0,200,0,0,100,0.00,40.00,0,0,0,0.00
2014-8-24,96,88,74,-100,0,200,0,0,100,0.00,40.00,0,0,0,0.00
2014-8-25,98,85,77,-100,0,200,0,0,100,0.00,40.00,0,0,0,0.00
2014-8-26,97,84,74,-100,0,200,0,0,100,0.00,40.00,0,0,0,0.00
2014-8-27,93,82,73,-100,0,200,0,0,100,0.00,40.00,0,0,0,0.00
2014-8-28,92,80,73,-100,0,200,0,0,100,0.00,40.00,0,0,0,0.00
2014-8-29,91,82,74,-100,0,200,0,0,100,0.00,40.00,0,0,0,0.00
2014-8-30,86,78,74,-100,0,200,0,0,100,0.00,40.00,0,0,0,0.00
2014-8-31,88,77,73,-100,0,200,0,0,100,0.00,40.00,0,0,0,0.00
2014-9-1,87,79,72,-100,0,200,0,0,100,0.00,40.00,0,0,0,0.00
2014-9-2,84,76,69,-100,0,200,0,0,100,0.00,40.00,0,0,0,0.00
2014-9-3,86,74,63,-100,0,200,0,0,100,0.00,40.00,0,0,0,0.00
2014-9-4,93,79,70,-100,0,200,0,0,100,0.00,40.00,0,0,0,0.00
2014-9-5,96,83,72,-100,0,200,0,0,100,0.00,40.00,0,0,0,0.00
2014-9-6,76,67,60,-100,0,200,0,0,100,0.00,40.00,0,0,0,0.00
2014-9-7,82,68,54,-100,0,200,0,0,100,0.00,40.00,0,0,0,0.00
2014-9-8,82,70,56,-100,0,200,0,0,100,0.00,40.00,0,0,0,0.00
2014-9-9,74,70,65,-100,0,200,0,0,100,0.00,40.00,0,0,0,0.00
2014-9-10,80,74,71,-100,0,200,0,0,100,0.00,40.00,0,0,0,0.00
2014-9-11,68,59,55,-100,0,200,0,0,100,0.00,40.00,0,0,0,0.00
2014-9-12,61,56,54,-100,0,200,0,0,100,0.00,40.00,0,0,0,0.00
2014-9-13,66,53,43,-100,0,200,0,0,100,0.00,40.00,0,0,0,0.00
2014-9-14,73,57,43,-100,0,200,0,0,100,0.00,40.00,0,0,0,0.00
2014-9-15,64,59,52,-100,0,200,0,0,100,0.00,40.00,0,0,0,0.00
2014-9-16,68,60,54,-100,0,200,0,0,100,0.00,40.00,0,0,0,0.00
2014-9-17,64,53,48,-100,0,200,0,0,100,0.00,40.00,0,0,0,0.00
2014-9-18,77,64,53,-100,0,200,0,0,100,0.00,40.00,0,0,0,0.00
2014-9-19,79,68,56,-100,0,200,0,0,100,0.00,40.00,0,0,0,0.00
2014-9-20,85,77,60,-100,0,200,0,0,100,0.00,40.00,0,0,0,0.00
2014-9-21,78,69,56,-100,0,200,0,0,100,0.00,40.00,0,0,0,0.00
2014-9-22,76,59,49,-100,0,200,0,0,100,0.00,40.00,0,0,0,0.00
2014-9-23,77,61,50,-100,0,200,0,0,100,0.00,40.00,0,0,0,0.00
2014-9-24,75,61,54,-100,0,200,0,0,100,0.00,40.00,0,0,0,0.00
2014-9-25,85,74,57,-100,0,200,0,0,100,0.00,40.00,0,0,0,0.00
2014-9-26,86,72,63,-100,0,200,0,0,100,0.00,40.00,0,0,0,0.00
2014-9-27,88,73,64,-100,0,200,0,0,100,0.00,40.00,0,0,0,0.00
2014-9-28,88,74,58,-100,0,200,0,0,100,0.00,40.00,0,0,0,0.00
2014-9-29,88,70,57,-100,0,200,0,0,100,0.00,40.00,0,0,0,0.00
2014-9-30,83,66,59,-100,0,200,0,0,100,0.00,40.00,0,0,0,0.00
2014-10-1,86,71,56,-100,0,200,0,0,100,0.00,40.00,0,0,0,0.00
2014-10-2,76,70,66,-100,0,200,0,0,100,0.00,40.00,0,0,0,0.00
2014-10-3,65,55,49,-100,0,200,0,0,100,0.00,40.00,0,0,0,0.00
2014-10-4,56,46,41,-100,0,200,0,0,100,0.00,40.00,0,0,0,0.00
2014-10-5,69,58,41,-100,0,200,0,0,100,0.00,40.00,0,0,0,0.00
2014-10-6,70,58,51,-100,0,200,0,0,100,0.00,40.00,0,0,0,0.00
2014-10-7,77,61,56,-100,0,200,0,0,100,0.00,40.00,0,0,0,0.00
2014-10-8,77,60,49,-100,0,200,0,0,100,0.00,40.00,0,0,0,0.00
2014-10-9,60,57,54,-100,0,200,0,0,100,0.00,40.00,0,0,0,0.00
2014-10-10,58,53,51,-100,0,200,0,0,100,0.00,40.00,0,0,0,0.00
2014-10-11,60,52,46,-100,0,200,0,0,100,0.00,40.00,0,0,0,0.00
2014-10-12,62,56,49,-100,0,200,0,0,100,0.00,40.00,0,0,0,0.00
2014-10-13,69,65,63,-100,0,200,0,0,100,0.00,40.00,0,0,0,0.00
2014-10-14,62,59,56,-100,0,200,0,0,100,0.00,40.00,0,0,0,0.00
2014-10-15,55,54,51,-100,0,200,0,0,100,0.00,40.00,0,0,0,0.00
2014-10-16,70,57,51,-100,0,200,0,0,100,0.00,40.00,0,0,0,0.00
2014-10-17,66,58,52,-100,0,200,0,0,100,0.00,40.00,0,0,0,0.00
2014-10-18,57,54,49,-100,0,200,0,0,100,0.00,40.00,0,0,0,0.00
2014-10-19,64,56,50,-100,0,200,0,0,100,0.00,40.00,0,0,0,0.00
2014-10-20,74,61,53,-100,0,200,0,0,100,0.00,40.00,0,0,0,0.00
2014-10-21,66,54,44,-100,0,200,0,0,100,0.00,40.00,0,0,0,0.00
2014-10-22,65,52,40,-100,0,200,0,0,100,0.00,40.00,0,0,0,0.00
2014-10-23,62,52,41,-100,0,200,0,0,100,0.00,40.00,0,0,0,0.00
2014-10-24,69,59,52,-100,0,200,0,0,100,0.00,40.00,0,0,0,0.00
2014-10-25,82,66,55,-100,0,200,0,0,100,0.00,40.00,0,0,0,0.00
2014-10-26,77,66,53,-100,0,200,0,0,100,0.00,40.00,0,0,0,0.00
2014-10-27,83,72,65,-100,0,200,0,0,100,0.00,40.00,0,0,0,0.00
2014-10-28,72,62,51,-100,0,200,0,0,100,0.00,40.00,0,0,0,0.00
2014-10-29,59,49,41,-100,0,200,0,0,100,0.00,40.00,0,0,0,0.00
2014-10-30,57,48,40,-100,0,200,0,0,100,0.00,40.00,0,0,0,0.00
2014-10-31,50,44,35,-100,0,200,0,0,100,0.00,40.00,0,0,0,0.00
2014-11-1,50,40,32,-100,0,200,0,0,100,0.00,40.00,0,0,0,0.00
2014-11-2,53,47,34,-100,0,200,0,0,100,0.00,40.00,0,0,0,0.00
2014-11-3,70,55,45,-100,0,200,0,0,100,0.00,40.00,0,0,0,0.00
2014-11-4,60,54,45,-100,0,200,0,0,100,0.00,40.00,0,0,0,0.00
2014-11-5,62,49,42,-100,0,200,0,0,100,0.00,40.00,0,0,0,0.00
2014-11-6,50,44,33,-100,0,200,0,0,100,0.00,40.00,0,0,0,0.00
2014-11-7,53,39,30,-100,0,200,0,0,100,0.00,40.00,0,0,0,0.00
2014-11-8,53,46,35,-100,0,200,0,0,100,0.00,40.00,0,0,0,0.00
2014-11-9,59,47,34,-100,0,200,0,0,100,0.00,40.00,0,0,0,0.00
2014-11-10,69,58,46,-100,0,200,0,0,100,0.00,40.00,0,0,0,0.00
2014-11-11,61,41,33,-100,0,200,0,0,100,0.00,40.00,0,0,0,0.00
2014-11-12,36,32,31,-100,0,200,0,0,100,0.00,40.00,0,0,0,0.00
2014-11-13,32,28,24,-100,0,200,0,0,100,0.00,40.00,0,0,0,0.00
2014-11-14,39,28,21,-100,0,200,0,0,100,0.00,40.00,0,0,0,0.00
2014-11-15,40,33,22,-100,0,200,0,0,100,0.00,40.00,0,0,0,0.00
2014-11-16,35,33,32,-100,0,200,0,0,100,0.00,40.00,0,0,0,0.00
2014-11-17,27,24,17,-100,0,200,0,0,100,0.00,40.00,0,0,0,0.00
2014-11-18,26,21,14,-100,0,200,0,0,100,0.00,40.00,0,0,0,0.00
2014-11-19,38,32,22,-100,0,200,0,0,100,0.00,40.00,0,0,0,0.00
2014-11-20,37,28,22,-100,0,200,0,0,100,0.00,40.00,0,0,0,0.00
2014-11-21,41,31,21,-100,0,200,0,0,100,0.00,40.00,0,0,0,0.00
2014-11-22,59,51,39,-100,0,200,0,0,100,0.00,40.00,0,0,0,0.00
2014-11-23,56,53,51,-100,0,200,0,0,100,0.00,40.00,0,0,0,0.00
2014-11-24,55,42,37,-100,0,200,0,0,100,0.00,40.00,0,0,0,0.00
2014-11-25,38,33,30,-100,0,200,0,0,100,0.00,40.00,0,0,0,0.00
2014-11-26,37,34,29,-100,0,200,0,0,100,0.00,40.00,0,0,0,0.00
2014-11-27,32,29,20,-100,0,200,0,0,100,0.00,40.00,0,0,0,0.00
2014-11-28,42,33,22,-100,0,200,0,0,100,0.00,40.00,0,0,0,0.00
2014-11-29,59,50,41,-100,0,200,0,0,100,0.00,40.00,0,0,0,0.00
2014-11-30,68,51,32,-100,0,200,0,0,100,0.00,40.00,0,0,0,0.00
2014-12-1,33,31,29,-100,0,200,0,0,100,0.00,40.00,0,0,0,0.00
2014-12-2,36,33,29,-100,0,200,0,0,100,0.00,40.00,0,0,0,0.00
2014-12-3,46,36,32,-100,0,200,0,0,100,0.00,40.00,0,0,0,0.00
2014-12-4,39,36,32,-100,0,200,0,0,100,0.00,40.00,0,0,0,0.00
2014-12-5,46,43,39,-100,0,200,0,0,100,0.00,40.00,0,0,0,0.00
2014-12-6,42,38,33,-100,0,200,0,0,100,0.00,40.00,0,0,0,0.00
2014-12-7,41,36,32,-100,0,200,0,0,100,0.00,40.00,0,0,0,0.00
2014-12-8,43,40,36,-100,0,200,0,0,100,0.00,40.00,0,0,0,0.00
2014-12-9,40,36,34,-100,0,200,0,0,100,0.00,40.00,0,0,0,0.00
2014-12-10,35,34,34,-100,0,200,0,0,100,0.00,40.00,0,0,0,0.00
2014-12-11,38,32,27,-100,0,200,0,0,100,0.00,40.00,0,0,0,0.00
2014-12-12,42,37,26,-100,0,200,0,0,100,0.00,40.00,0,0,0,0.00
2014-12-13,57,46,39,-100,0,200,0,0,100,0.00,40.00,0,0,0,0.00
2014-12-14,51,49,46,-100,0,200,0,0,100,0.00,40.00,0,0,0,0.00
2014-12-15,51,50,48,-100,0,200,0,0,100,0.00,40.00,0,0,0,0.00
2014-12-16,48,39,32,-100,0,200,0,0,100,0.00,40.00,0,0,0,0.00
2014-12-17,32,31,28,-100,0,200,0,0,100,0.00,40.00,0,0,0,0.00
2014-12-18,33,31,28,-100,0,200,0,0,100,0.00,40.00,0,0,0,0.00
2014-12-19,37,33,32,-100,0,200,0,0,100,0.00,40.00,0,0,0,0.00
2014-12-20,42,36,33,-100,0,200,0,0,100,0.00,40.00,0,0,0,0.00
2014-12-21,44,39,37,-100,0,200,0,0,100,0.00,40.00,0,0,0,0.00
2014-12-22,50,44,38,-100,0,200,0,0,100,0.00,40.00,0,0,0,0.00
2014-12-23,50,48,43,-100,0,200,0,0,100,0.00,40.00,0,0,0,0.00
2014-12-24,43,40,38,-100,0,200,0,0,100,0.00,40.00,0,0,0,0.00
2014-12-25,49,42,38,-100,0,200,0,0,100,0.00,40.00,0,0,0,0.00
2014-12-26,58,49,41,-100,0,200,0,0,100,0.00,40.00,0,0,0,0.00
2014-12-27,50,44,35,-100,0,200,0,0,100,0.00,40.00,0,0,0,0.00
2014-12-28,34,32,27,-100,0,200,0,0,100,0.00,40.00,0,0,0,0.00
2014-12-29,41,32,26,-100,0,200,0,0,100,0.00,40.00,0,0,0,0.00
2014-12-30,32,27,20,-100,0,200,0,0,100,0.00,40.00,0,0,0,0.00
2014-12-31,29,22,14,-100,0,200,0,0,100,0.00,40.00,0,0,0,0.00
2015-1-1,38,29,24,-100,0,200,0,0,100,0.00,40.00,0,0,0,0.00
2015-1-2,41,37,34,-100,0,200,0,0,100,0.00,40.00,0,0,0,0.00